User: anonymous   Login
Location: Berbisdorf
(50.7638°N, 12.9442°E)
Time: 17:36:56
(UTC+00:00)
Language:

BREEZE-M DEB (TANK) - Orbit

View from above orbital plane
View from above orbital plane
View from above satellite
View from above satellite

Ground track
Ground track

The orbit data is extracted from the following two-line orbital elements,

1 39010U 12065C   20227.16650388 +.00000499 +00000-0 +12627-3 0  9990
2 39010 049.6275 121.2969 4663072 150.6919 246.4691 06.16261177171296
Epoch (UTC): 14 August 2020 03:59:45
Eccentricity: 0.4663072
inclination: 49.6275°
perigee height: 328 km
apogee height: 12048 km
right ascension of ascending node: 121.2969°
argument of perigee: 150.6919°
revolutions per day: 6.16261177
mean anomaly at epoch: 246.4691°
orbit number at epoch: 17129

The dashed part of the orbit path shows where the satellite is in the earth's shadow,  

DLR